Regional Weather Roundup
Issued by NWS Huntsville, AL

Home | Current Version | Previous Version | Text Only | Print | Product List | Glossary On
Versions: 1 2 3 4 5 6 7 8 9 10 11 12 13 14 15 16 17 18 19 20 21 22 23 24 25 26 27 28 29 30 31 32 33 34 35 36 37 38 39 40 41 42 43 44 45 46 47 48 49
000
ASUS44 KHUN 280010
RWRHUN

WEATHER ROUNDUP FOR THE TENNESSEE VALLEY
NATIONAL WEATHER SERVICE HUNTSVILLE AL
700 PM CDT THU AUG 27 2015

ALZ001>004-280100-
NORTHWEST ALABAMA

CITY           SKY/WX    TMP DP  RH WIND       PRES   REMARKS
COURTLAND HCN    N/A     79 N/A N/A N3          N/A
RUSSELLVILLE     N/A     75 N/A N/A MISG        N/A
SHOALS AIRPORT FAIR      78  59  51 N6        30.05S
6HR MIN TEMP:  78; 6HR MAX TEMP:  84;

SHOALS TVA RES   N/A     79 N/A N/A MISG        N/A
$$

ALZ005>007-016-280100-
NORTH CENTRAL ALABAMA

CITY           SKY/WX    TMP DP  RH WIND       PRES   REMARKS
CULLMAN AG STN   N/A     77 N/A N/A NE5         N/A
DECATUR AP     FAIR      76  64  66 N8        30.04S
6HR MIN TEMP:  76; 6HR MAX TEMP:  83;

HUNTSVILLE AP  FAIR      79  63  57 N6        30.03S
6HR MIN TEMP:  79; 6HR MAX TEMP:  88;

HUN NWS/UAH      N/A     79  60  52 N5          N/A
MERIDIANVILLE  FAIR      77  59  53 N6        30.05R
REDSTONE ARSN  FAIR      78  63  61 N7        30.03R
VINEMONT AP    FAIR      73  64  73 CALM      30.06S
$$

ALZ008>010-280100-
NORTHEAST ALABAMA

CITY           SKY/WX    TMP DP  RH WIND       PRES   REMARKS
ALBERTVILLE    FAIR      77  70  78 N5        30.03S
FORT PAYNE     FAIR      77  63  61 E3        30.04S
SCOTTSBORO AP  FAIR      79  66  65 CALM      30.04R
SCOTTSBORO HCN   N/A     81 N/A N/A MISG        N/A
VALLEY HEAD      N/A     73 N/A N/A MISG        N/A
$$

TNZ076-096-097-280100-
SOUTHEASTERN MIDDLE TENNESSEE

CITY           SKY/WX    TMP DP  RH WIND       PRES   REMARKS
TULLAHOMA      CLEAR     73  63  68 N6        30.09R
WINCHESTER     CLEAR     75  64  69 N5        30.07R
$$

...SURROUNDING SITES...

CITY           SKY/WX    TMP DP  RH WIND       PRES   REMARKS
ATLANTA        FAIR      79  64  60 E9        30.03R
ANNISTON       FAIR      83  62  49 E3        30.01R
BIRMINGHAM     FAIR      82  66  58 N6        30.02S
CHATTANOOGA    FAIR      81  61  50 NE7       30.04S
DALTON         CLOUDY    77  66  69 N3        30.05R
GADSDEN        FAIR      81  63  54 NE3       30.01R
GOLDEN TRNGL   CLEAR     81  57  44 N9        30.01S
HALEYVILLE     FAIR      76  64  66 CALM      30.07S
JACKSON TN     FAIR      74  61  63 CALM      30.06F
MEMPHIS        FAIR      79  56  45 NE9       30.04F
NASHVILLE      FAIR      78  52  40 N8        30.08S
OXFORD MS      FAIR      73  59  60 NE5       30.06F
ROME           CLOUDY    80  67  64 N6        30.02R
SAVANNAH       CLEAR     75  32  20 NE3       30.06F
TUPELO         FAIR      76  58  53 N9        30.03F
TUSCALOOSA     FAIR      83  63  50 N6        29.99S
$$

...GULF COAST WEATHER...

CITY           SKY/WX    TMP DP  RH WIND       PRES   REMARKS
GULFPORT       FAIR      84  61  45 N6        29.94R
PASCAGOULA     FAIR      82  64  54 N3        29.94R
MOBILE         FAIR      82  62  50 N6        29.95R
GULF SHORES    FAIR      80  68  67 S3        29.93R
PENSACOLA      FAIR      79  66  64 SW5       29.93R
DESTIN         FAIR      83  64  52 VRB6      29.93R
PANAMA CITY    FAIR      82  65  56 W9        29.92S
APPALACHICOLA  FAIR      82  68  62 NW6       29.93R
$$



USA.gov is the U.S. government's official web portal to all federal, state and local government web resources and services.